SCP
0 0 0 0 0 0 0 0 0 0 0 0 0 0 0 0 0 0 0 0 0 0 0 0 0 0 0 0 0 0 0 0 0 0 0 -0 -0 0 0 0 0 0 0 0 0 0 0 -0 -0
0 0 0 0 0 0 0 0 0 0 0 0 0 0 0 0 0 0 0 0 0 0 0 0 0 0 0 0 0 0 0 0 0 0 0 -0 -0 0 0 0 0 0 0 0 0 0 0 -0 -0
0 0 0 0 0 0 0 0 0 0 0 0 0 0 0 0 0 0 0 0 0 0 0 0 0 0 0 0 0 0 0 0 0 0 0 0 -0 -0 0 0 0 0 0 0 -0 -0 -0 -0 -0
0 0 0 0 0 0 0 0 0 0 0 0 0 0 0 0 0 0 0 0 0 0 0 0 1 1 0 0 0 0 0 0 0 0 0 0 0 0 0 0 0 0 0 0 -0 -0 -0 -0 -0
0 0 0 0 0 0 0 0 0 0 0 0 0 0 0 0 0 0 0 0 0 0 0 0 1 1 1 0 0 0 0 0 0 0 0 0 0 0 0 0 0 0 0 -0 -0 -0 -0 -0 -0
0 0 0 0 0 0 0 0 0 0 0 0 0 0 0 0 0 0 0 0 0 0 0 1 1 1 1 0 0 0 0 0 0 0 0 0 0 0 0 0 0 0 -0 -0 -0 -0 -0 -0 -0
0 0 0 0 0 0 0 0 0 0 0 0 0 0 0 0 0 0 0 0 0 0 0 1 1 1 1 0 0 0 0 0 0 0 0 0 0 0 0 -0 -0 -0 -0 -0 -0 -0 -0 -0 -0
0 0 0 0 0 0 0 0 0 0 0 0 0 0 0 0 0 0 0 0 0 0 0 1 1 1 1 0 0 0 0 0 0 0 0 0 0 0 -0 -0 -0 -0 0 0 -0 -0 -0 -0 -0
0 0 0 0 0 0 0 0 0 0 0 0 0 0 0 0 0 0 0 0 0 0 0 0 0 0 0 0 0 0 0 0 0 0 0 0 0 -0 -0 -0 -0 0 0 0 0 -0 -0 -0 -0
0 0 0 0 0 0 0 0 0 0 0 0 0 0 0 0 0 0 0 0 0 0 0 0 0 0 0 0 0 0 0 0 0 0 0 0 0 -0 -0 -0 -0 0 0 0 -0 -0 -0 -0 -0
0 0 0 0 0 0 0 0 0 0 0 0 0 0 0 0 0 0 0 0 0 0 0 0 0 0 0 0 0 0 0 0 0 0 0 0 0 0 -0 -0 -0 0 0 -0 -0 -0 -0 -0 -0
0 0 0 0 0 0 0 0 0 0 0 0 0 0 0 0 0 0 0 0 0 0 0 0 0 0 0 0 0 0 0 0 0 0 0 0 0 0 0 0 0 0 0 -0 -0 -0 -0 -0 -0
0 0 0 0 0 0 0 0 0 0 0 0 0 0 0 0 0 0 0 0 0 0 0 0 0 0 0 0 0 0 0 0 0 0 0 0 0 0 0 0 0 0 0 0 0 0 -0 -0 -0
0 0 0 0 0 0 0 0 0 0 0 0 0 0 0 0 0 0 0 0 0 0 0 0 0 0 0 0 0 0 0 0 0 0 0 0 0 0 0 0 0 0 0 0 0 0 0 -0 -0
0 0 0 0 0 0 0 0 0 0 0 0 0 0 0 0 0 0 0 0 0 0 0 0 0 0 0 0 0 0 0 0 0 0 0 0 0 0 0 0 0 0 0 0 0 0 0 0 0
0 0 0 0 0 0 0 0 0 0 0 0 0 0 0 0 0 0 0 0 0 0 0 0 0 0 0 0 0 0 0 0 0 0 0 0 0 0 0 0 0 0 0 0 0 0 0 0 0
0 0 0 0 0 0 0 0 0 0 0 0 0 0 0 0 0 0 0 0 0 0 0 0 0 0 0 0 0 0 0 0 0 0 0 0 0 0 0 0 0 0 0 0 0 0 0 0 0
0 0 0 0 0 0 0 0 0 0 0 0 0 0 0 0 0 0 0 0 0 0 0 0 0 0 0 0 0 0 0 0 0 0 0 0 0 0 0 0 0 0 0 0 0 0 0 0 0
0 0 0 0 0 0 0 0 0 0 0 0 0 0 0 0 0 0 0 0 0 0 0 0 0 0 0 0 0 0 0 0 0 0 0 0 0 0 0 0 0 0 0 0 0 0 0 0 0
0 0 0 0 0 0 0 0 0 0 0 0 0 0 0 0 0 0 0 0 0 0 0 0 0 0 0 0 0 0 0 0 0 0 0 0 0 0 0 0 0 0 0 0 0 0 0 0 0
0 0 0 0 0 0 0 0 0 0 0 0 0 0 0 0 0 0 0 0 0 0 0 0 0 0 0 0 0 0 0 0 0 0 0 0 0 0 0 0 0 0 0 0 0 0 0 0 0
0 0 0 0 0 0 0 0 0 0 0 0 0 0 0 0 0 0 0 0 0 0 0 0 0 0 0 0 0 0 0 0 0 0 0 0 0 0 0 0 0 0 0 0 0 0 0 0 0
0 0 0 0 0 0 0 0 0 0 0 0 0 0 0 0 0 0 0 0 0 0 0 0 0 0 0 0 0 0 0 0 0 0 0 0 0 0 0 0 0 0 0 0 0 0 0 0 0
0 0 0 0 0 0 0 0 0 0 0 0 0 0 0 0 0 0 0 0 0 0 0 0 0 0 0 0 0 0 0 0 0 0 0 0 0 0 0 0 0 0 0 0 0 0 0 0 0
0 0 0 0 0 0 0 0 0 0 0 0 0 0 0 0 0 0 0 0 0 0 0 0 0 0 0 0 0 0 0 0 0 0 0 0 0 0 0 0 0 0 0 0 0 0 0 0 0
0 0 0 0 0 0 0 0 0 0 0 0 0 0 0 0 0 0 0 0 0 0 0 0 0 0 0 0 0 0 0 0 0 0 0 0 0 0 0 0 0 0 0 0 0 0 0 0 0
0 0 0 0 0 0 0 0 0 0 0 0 0 0 0 0 0 0 0 0 0 0 0 0 0 0 0 0 0 0 0 0 0 0 0 0 0 0 0 0 0 0 0 0 0 0 0 0 0
0 0 0 0 0 0 0 0 0 0 0 0 0 0 0 0 0 0 0 0 0 0 0 0 0 0 0 0 0 0 0 0 0 0 0 0 0 0 0 0 0 0 0 0 0 0 0 0 0
0 0 0 0 0 0 0 0 0 0 0 0 0 0 0 0 0 0 0 0 0 0 0 0 0 0 0 0 0 0 0 0 0 0 0 0 0 0 0 0 0 0 0 0 0 0 0 0 0
0 0 0 0 0 0 0 0 0 0 0 0 0 0 0 0 0 0 0 0 0 0 0 0 0 0 0 0 0 0 0 0 0 0 0 0 0 0 0 0 0 0 0 0 0 0 0 0 0
Wind_Speed
3 2 3 4 6 4 4 6 4 2 3 2 1 4 6 4 4 5 3 7 10 11 9 12 13 13 12 12 12 12 11 11 11 11 11 11 11 11 11 11 11 11 11 12 12 12 12 12 12
1 2 4 5 5 2 6 6 6 6 4 2 2 4 5 2 2 6 5 8 12 11 9 10 13 13 13 12 12 12 12 11 11 11 10 11 11 11 11 11 11 11 11 12 12 11 11 11 11
2 2 4 5 4 7 6 5 7 4 3 2 2 3 4 4 4 5 6 11 11 9 8 10 13 13 13 12 12 12 12 11 11 10 10 10 11 11 11 11 11 11 11 11 11 11 11 10 10
3 4 4 3 5 6 6 4 3 3 1 1 3 3 2 1 4 6 10 12 11 9 7 9 13 13 13 12 12 11 12 11 11 10 10 10 10 11 11 11 11 11 11 11 11 11 10 10 9
4 4 3 1 5 6 6 5 3 3 2 1 4 4 1 3 5 10 11 12 11 8 7 9 13 13 12 12 12 11 11 11 10 10 10 10 10 11 11 10 10 11 11 11 10 10 10 9 9
4 4 3 4 6 5 5 4 3 3 2 1 4 4 1 1 6 9 10 10 10 9 7 8 12 12 12 12 11 11 11 10 10 9 9 9 10 10 10 11 10 10 10 10 10 9 9 9 8
4 4 4 5 4 5 5 3 5 4 4 4 5 5 2 2 4 7 9 9 8 8 7 6 7 9 11 11 10 10 10 9 9 9 8 8 8 9 10 10 9 9 9 9 9 8 8 8 8
5 4 3 4 4 5 3 2 3 5 4 2 5 8 6 6 5 7 7 7 7 7 6 6 5 6 5 6 9 9 9 8 8 8 8 8 7 8 8 8 8 9 9 8 8 7 7 7 7
4 3 5 6 6 5 3 2 2 2 3 1 1 4 6 8 8 8 7 6 6 7 6 6 6 6 5 5 7 7 7 7 7 6 8 7 4 4 5 6 7 8 8 8 7 7 7 6 6
4 5 9 5 4 3 2 3 3 2 1 1 2 2 6 8 9 10 9 9 8 8 7 6 6 6 6 5 4 3 3 4 4 4 5 3 3 3 4 6 7 7 7 6 7 6 6 5 3
6 8 6 5 4 2 2 2 2 5 4 6 6 7 9 8 9 9 9 8 8 8 7 6 7 6 6 4 4 2 2 2 3 4 5 4 3 3 3 2 3 3 4 2 3 3 2 2 2
5 6 6 4 4 3 3 2 2 5 7 6 8 10 10 10 10 10 9 8 7 7 7 7 7 6 5 5 4 4 3 3 3 4 5 4 3 3 3 2 2 2 2 2 2 2 2 3 3
8 5 5 6 4 4 3 4 4 6 6 4 6 8 10 11 9 8 8 7 7 7 7 7 7 7 6 5 4 4 4 4 4 3 4 5 4 4 3 3 3 3 2 2 2 2 2 2 2
6 6 6 6 6 4 5 6 4 9 4 5 7 8 9 10 10 7 7 7 7 7 7 7 7 7 7 5 4 4 4 4 4 4 5 6 4 4 4 4 3 3 3 3 3 3 3 2 2
3 4 7 7 6 5 3 7 10 9 5 6 7 8 8 8 8 9 9 9 8 8 7 7 8 7 7 6 5 4 4 4 4 4 5 5 5 5 5 4 3 3 3 3 3 3 3 2 2
2 3 7 7 6 6 7 13 9 6 7 8 7 7 7 7 8 8 8 7 7 7 7 7 7 7 7 6 5 4 4 4 4 4 4 5 6 6 5 4 3 3 3 3 3 3 3 3 2
4 7 8 6 6 5 8 10 7 5 8 9 8 7 7 6 7 7 7 8 8 8 8 7 6 7 7 6 5 4 4 4 4 4 4 5 6 6 5 4 4 4 3 3 4 3 3 3 3
8 7 7 8 5 6 8 10 7 4 7 9 7 6 6 7 8 6 7 7 7 7 7 7 7 6 6 5 4 3 3 3 3 3 4 5 5 6 5 4 4 5 4 3 3 4 3 3 3
5 6 8 7 4 5 9 11 9 7 5 6 5 5 6 7 6 5 5 6 6 6 6 7 7 6 6 4 4 4 4 3 3 3 4 5 5 6 5 4 5 5 4 5 5 4 4 2 3
8 9 9 6 4 5 7 11 7 6 6 7 7 7 6 5 4 4 4 5 6 7 7 7 8 8 7 5 4 3 4 3 3 3 3 5 6 6 5 6 5 5 5 5 5 5 3 2 2
10 10 8 6 4 3 3 8 6 5 4 4 5 6 6 7 7 6 5 5 6 6 7 7 7 7 7 5 4 3 3 2 2 3 3 4 5 6 5 6 6 5 5 6 6 6 6 4 1
10 7 6 6 4 5 4 6 8 5 5 6 6 5 6 6 6 6 6 6 6 6 6 6 7 7 7 7 6 7 5 4 4 4 3 4 4 5 6 6 6 6 5 6 6 5 4 6 4
6 4 6 6 5 5 4 5 8 2 5 6 5 6 6 5 5 5 6 6 5 5 5 5 5 6 7 7 8 7 4 4 2 2 4 4 3 4 5 6 6 6 5 6 6 5 5 4 5
2 1 3 2 2 7 9 7 7 4 6 4 4 4 4 4 4 4 3 4 3 3 4 4 5 6 7 7 7 7 7 5 5 4 4 4 3 3 4 5 5 6 5 6 6 6 7 5 5
2 2 1 2 4 7 5 6 7 3 2 3 3 3 2 1 2 2 3 3 3 4 4 4 5 5 6 7 7 7 7 7 7 6 5 5 3 3 5 5 5 5 5 6 6 6 6 6 6
3 5 5 5 5 3 2 6 4 2 3 2 1 1 1 1 1 1 2 4 4 4 4 4 5 4 5 7 7 6 6 5 4 5 5 5 4 4 5 5 5 5 6 6 5 5 5 5 6
2 3 2 2 2 2 3 2 2 6 8 7 6 5 3 2 2 1 1 2 2 3 3 4 4 4 4 6 6 5 5 5 5 4 4 4 3 3 5 5 5 5 5 6 6 5 5 5 5
0 0 1 1 3 4 2 1 2 6 7 8 7 7 6 5 4 3 2 2 1 1 1 2 3 4 3 4 5 4 5 5 5 4 4 4 4 4 4 5 5 5 5 5 5 4 5 5 5
3 2 1 1 2 2 2 0 3 4 5 5 6 6 6 6 6 5 3 3 3 2 2 1 1 2 2 3 3 4 4 4 4 4 4 4 4 4 5 5 5 5 5 5 5 5 5 6 5
2 1 1 1 2 1 2 1 5 6 7 7 7 8 7 7 6 6 6 5 4 3 2 1 1 1 1 2 3 3 4 4 4 4 4 4 4 4 5 5 5 5 5 5 5 6 6 6 6
Wind_Direction
333 11 78 62 61 63 229 239 231 246 218 208 175 121 125 126 151 167 148 141 136 146 152 150 146 143 140 138 135 132 130 129 128 127 127 126 126 124 122 119 116 113 109 107 104 102 102 101 99
19 46 62 65 100 164 251 239 228 227 215 173 110 103 95 87 94 117 131 145 139 143 147 149 148 145 142 139 137 135 134 131 129 128 127 128 127 126 123 120 116 112 108 105 105 105 104 103 102
359 76 88 89 146 190 221 229 218 231 241 192 113 79 110 137 137 147 155 143 135 139 144 151 149 148 146 143 142 140 137 134 132 130 128 128 129 126 120 117 114 110 106 105 106 107 106 105 103
67 55 62 101 215 224 216 230 203 180 248 147 122 84 64 89 161 150 141 138 135 139 143 151 149 150 148 147 146 144 142 140 138 135 132 130 130 128 121 116 112 110 107 107 108 110 108 106 103
65 84 95 222 236 244 239 239 203 180 188 169 121 114 54 346 118 131 139 138 137 139 144 150 151 150 149 149 148 145 146 146 144 141 137 133 130 127 124 119 115 113 111 111 111 112 112 108 103
70 83 130 220 241 254 251 229 187 185 194 169 123 120 174 124 127 138 140 140 140 142 144 150 153 152 150 151 151 149 148 149 147 144 142 139 133 128 129 124 120 118 117 116 114 113 111 108 104
122 129 188 210 230 250 242 206 177 179 181 192 148 128 167 189 157 141 137 136 136 139 140 143 150 153 153 151 150 150 150 148 148 146 142 137 131 130 130 129 128 126 122 120 116 114 110 106 103
142 134 207 216 214 238 234 192 187 170 190 189 138 148 186 200 162 132 126 130 134 138 141 145 144 144 146 150 150 152 152 149 148 145 139 133 130 130 130 129 132 130 126 122 118 114 107 99 96
117 120 215 213 202 232 221 187 225 171 128 106 133 172 184 154 139 127 127 130 142 147 149 148 147 145 145 149 156 152 150 148 142 140 135 130 124 125 128 130 130 129 127 126 122 116 105 94 89
140 196 220 216 204 215 228 197 190 129 128 132 65 70 124 141 145 148 157 162 162 164 164 159 154 153 152 156 144 145 148 146 140 137 134 127 124 129 129 130 131 129 127 128 125 116 106 91 82
180 207 216 237 241 232 231 228 201 154 210 203 183 164 150 156 158 163 169 172 173 170 167 167 163 160 156 148 148 145 141 144 146 147 142 133 123 120 118 120 126 124 120 116 114 102 94 96 98
205 230 216 231 228 228 230 217 217 203 217 202 180 163 160 168 176 178 177 176 171 169 173 171 165 160 161 154 155 156 153 156 155 158 150 142 137 135 141 139 135 127 121 120 108 103 101 102 106
230 243 233 238 240 238 244 237 225 239 235 186 169 166 174 179 186 189 183 175 166 173 177 176 167 164 164 158 163 162 164 168 164 161 159 153 150 153 153 151 148 146 138 138 131 123 120 114 109
226 238 252 246 238 232 229 252 233 247 214 182 180 189 193 191 188 181 180 180 179 180 181 177 172 168 163 164 166 167 169 167 163 166 165 159 156 156 157 155 157 157 155 152 146 138 128 118 110
232 250 268 245 224 223 201 263 235 237 196 196 199 201 201 202 192 188 186 183 184 182 176 177 177 169 166 166 169 167 171 165 166 169 164 161 157 157 157 158 161 166 155 145 132 123 115 111 104
230 230 249 245 204 203 179 246 245 223 192 212 212 203 203 207 201 198 191 184 181 175 173 179 178 170 170 168 167 163 164 165 166 164 163 163 160 158 153 154 160 158 147 145 140 133 124 117 113
221 228 232 252 210 188 195 241 250 213 195 213 215 209 206 211 210 207 197 189 180 175 171 174 172 171 172 166 161 159 159 161 162 161 163 166 162 159 153 155 154 149 142 147 150 139 139 132 119
215 222 228 223 220 190 214 242 260 240 206 217 218 214 211 212 217 206 198 191 180 173 169 170 168 170 163 154 143 142 150 157 157 163 166 164 163 159 152 152 154 148 141 140 139 139 134 133 130
226 228 241 240 231 207 229 244 251 251 225 220 219 212 212 220 223 202 190 183 172 168 167 170 167 168 160 157 158 160 169 167 167 173 170 167 163 161 156 155 156 157 156 157 148 133 129 122 128
250 251 256 273 251 224 245 254 251 240 225 214 215 219 217 220 221 200 186 174 171 174 175 173 174 169 170 171 167 159 154 161 171 173 177 177 169 167 166 162 166 164 153 153 154 140 134 140 149
248 240 240 246 282 261 268 276 251 241 232 236 228 217 208 202 206 201 188 186 178 178 180 181 181 172 169 160 139 121 101 97 142 178 187 190 176 171 169 169 167 167 163 167 169 162 150 159 185
250 244 247 242 234 254 200 261 264 235 241 243 241 226 217 213 206 198 187 183 186 190 183 177 177 173 168 160 160 163 170 176 188 184 187 190 180 175 172 172 171 171 169 170 175 171 159 157 169
248 259 247 244 223 245 224 230 269 221 239 250 244 230 224 218 207 199 192 187 184 179 175 174 171 173 170 168 170 170 174 179 164 161 177 187 185 179 173 173 173 174 176 177 177 171 169 168 172
265 310 297 257 178 236 219 200 264 219 221 246 243 231 227 217 206 196 183 162 161 162 162 165 167 180 176 172 172 175 176 171 164 173 181 187 188 184 180 177 177 178 179 181 182 179 179 182 181
29 107 204 227 211 234 190 189 246 252 246 231 230 236 245 216 182 173 160 154 157 161 164 166 171 181 181 177 178 182 181 177 179 180 184 184 185 191 192 185 184 183 184 184 180 179 185 186 186
244 191 196 212 213 253 185 204 241 329 351 6 12 38 34 60 102 141 171 167 168 169 171 168 174 180 184 182 184 182 178 178 184 183 182 188 194 197 189 187 187 187 184 185 181 184 191 190 193
240 232 226 200 223 221 230 252 334 17 15 16 21 28 28 20 40 68 106 138 156 166 176 177 174 176 186 186 180 179 178 179 182 183 182 186 189 189 182 182 183 185 186 185 181 190 195 190 195
342 266 65 180 196 218 217 204 337 356 354 7 18 17 9 16 27 37 54 64 94 141 152 159 169 176 179 180 181 181 182 183 177 175 180 183 187 182 178 179 183 185 187 186 184 189 192 190 196
14 25 352 251 232 196 191 249 5 4 2 8 17 21 18 20 20 20 32 45 46 47 66 92 142 154 164 177 176 170 175 176 170 174 182 183 179 177 181 181 181 185 188 188 189 195 190 195 198
87 51 47 211 279 259 162 255 358 19 19 18 12 14 18 20 22 24 29 37 40 39 37 51 73 126 185 183 172 172 170 168 170 177 180 177 178 182 185 180 180 185 190 190 192 198 196 199 200